Showing default

KUIPER-00610, 69292

Orbit data source: Space-Track

KUIPER-00610, 69292 is a payload satellite owned by Kuiper Systems (US) in LEO that was launched on Fri, 29 May 2026 UTC via an ATLAS V 551 launch vehicle from the Air Force Eastern Test Range (AFETR). Payload-class satellites include a variety of spacecraft equipped with specific instruments for various scientific and technological missions. These include communications satellites like Starlink; space stations such as the ISS; scientific satellites like the Hubble; Earth observation satellites from companies like Planet Labs, Umbra, and HawkEye 360; GPS; miniature CubeSats for education and research; and military/defense satellites.

Loading next visibility...
Identifier
69292, 2026-118AB
Orbit
LEO
Country
Flag of USUS
Related business
Manufacturer
Kuiper Systems
Mission
Operational spacecraft
Bus & Motor
KUIPER, Unknown motor
Mass
~490 kg wet, ~490 kg dry
Launch date (UTC)
2026-05-29 (3 weeks ago)
Launch vehicle
ATLAS V 551
Launch site
Air Force Eastern Test Range (AFETR)
Object type
Payload
Rocket body
Debris
Shape & HBR
Unknown
Radar Cross Section
Large (>1 m²)

Expand to show TLE details & history
Last TLE update: 21 hours ago

TLE from 21 hours ago
0 KUIPER-00610
1 69292U 26118AB  26170.97812762  .00022052  00000-0  58455-3 0  9995
2 69292  51.8728  39.6367 0002070 158.5120 201.5954 15.38255226  4410
Epoch: 2026-06-19T23:28Z
TLE epoch observation values (Epoch: 2026-06-19T23:28:30.226Z)
Latitude
-0.00004°
Longitude
139.31137°
Altitude
453.346 km
Speed
7.641 km/s
True Right ascension
02h 38m 32s
True Declination
0° 00' 00"
Sunlit
Object was in daylight at epoch
Visualization orbit readout
Latitude
Unknown
Longitude
Unknown
Altitude
Unknown
Speed
Unknown
Apparent Right ascension
Unknown
Apparent Declination
Unknown
Sunlit
N/A
Visualization observer readout
Local Sidereal Time
07:14:54
Azimuth
Unknown
Elevation
Unknown
Doppler factor
Unknown
Orbital elements
Apogee altitude
453.15 km
Perigee altitude
450.322 km
Semi-major axis
6,829.873 km
Eccentricity
0.00021
Inclination
51.8728°
RAAN
39.6367°
Arg. of periapsis
158.512°
True anomaly
201.58667°
Mean anomaly
201.5954°
Eccentric anomaly
201.59104°
Mean motion
3.84525 °/min
Orbital period
93.62 mins
BSTAR
0.00058455
Loading maneuver chart data...
Computing Atmospheric mass density...
Loading historical data...
Loading historical data...
Loading historical data...
Loading historical data...
Loading historical data...
Loading historical data...
Loading historical data...

Documentation

Showing up to 5 results
|